Location: Newark
(42.7336°N, 84.5467°W)
Time: 00:03:18
(UTC+00:00)

Hubble Space Telescope - Visible Passes

Search period start: 26 September 2020 00:00
Search period end: 06 October 2020 00:00
Orbit: 536 x 540 km, 28.5° (Epoch: 25 September)

Date Brightness Start Highest point End Pass type
(mag) Time Alt. Az. Time Alt. Az. Time Alt. Az.
27 Sep 3.3 10:44:03 10° S 10:44:39 10° S 10:45:15 10° SSE visible
28 Sep 3.2 10:32:46 10° S 10:33:46 11° S 10:34:46 10° SSE visible
29 Sep 3.2 10:21:45 10° SSW 10:22:54 11° S 10:24:03 10° SSE visible
30 Sep 3.1 10:10:56 10° SSW 10:12:01 11° S 10:13:09 10° SSE visible
01 Oct 3.2 10:00:53 11° S 10:01:09 11° S 10:02:07 10° S visible
